This is the latest recevied weather packets stored in our database for station/object AK4NG. If no packets are shown the sender has not sent any weather packets the latest 10 day(s).
| Time | Temp. | Humidity | Pressure | Rain* | Wind** | Luminosity | Snow |
|---|---|---|---|---|---|---|---|
| 1777828712 | 21.11° C | 36% | 1022.2 hPa | 0 mm | - | 926 W/m² | - |
| 1777828409 | 21.11° C | 37% | 1022.2 hPa | 0 mm | - | 922 W/m² | - |
| 1777828107 | 21.67° C | 34% | 1022.4 hPa | 0 mm | - | 918 W/m² | - |
| 1777827803 | 21.11° C | 33% | 1022.3 hPa | 0 mm | - | 914 W/m² | - |
| 1777827500 | 21.11° C | 35% | 1022.5 hPa | 0 mm | - | 910 W/m² | - |
| 1777827198 | 21.11° C | 36% | 1022.6 hPa | 0 mm | - | 905 W/m² | - |
| 1777826894 | 21.11° C | 38% | 1022.5 hPa | 0 mm | - | 901 W/m² | - |
| 1777826592 | 21.11° C | 35% | 1022.5 hPa | 0 mm | - | 896 W/m² | - |
| 1777826287 | 21.11° C | 34% | 1022.6 hPa | 0 mm | - | 889 W/m² | - |
| 1777825986 | 21.11° C | 36% | 1022.7 hPa | 0 mm | - | 882 W/m² | - |
| 1777825682 | 20.56° C | 39% | 1022.8 hPa | 0 mm | - | 873 W/m² | - |
| 1777825380 | 20.56° C | 39% | 1022.8 hPa | 0 mm | - | 863 W/m² | - |
| 1777825076 | 20.56° C | 36% | 1022.6 hPa | 0 mm | - | 855 W/m² | - |
| 1777824772 | 20.56° C | 38% | 1022.8 hPa | 0 mm | - | 848 W/m² | - |
| 1777824470 | 20.56° C | 36% | 1022.7 hPa | 0 mm | - | 838 W/m² | - |
| 1777824165 | 20.56° C | 38% | 1022.9 hPa | 0 mm | - | 828 W/m² | - |
| 1777823861 | 20.56° C | 40% | 1022.7 hPa | 0 mm | - | 818 W/m² | - |
| 1777823560 | 20.56° C | 41% | 1022.7 hPa | 0 mm | - | 809 W/m² | - |
| 1777823256 | 20.56° C | 37% | 1022.8 hPa | 0 mm | - | 798 W/m² | - |
| 1777822954 | 20.56° C | 40% | 1022.7 hPa | 0 mm | - | 786 W/m² | - |
| 1777822652 | 20° C | 44% | 1022.9 hPa | 0 mm | - | 772 W/m² | - |
| 1777822349 | 20° C | 42% | 1022.8 hPa | 0 mm | - | 760 W/m² | - |
| 1777822047 | 20° C | 44% | 1023 hPa | 0 mm | - | 751 W/m² | - |
| 1777821745 | 20° C | 41% | 1022.8 hPa | 0 mm | - | 737 W/m² | - |
| 1777821441 | 19.44° C | 43% | 1022.9 hPa | 0 mm | - | 720 W/m² | - |
* Rain latest hour (hover to see other rain measurements)
** Current wind speed in m/s (hover to see current wind gust speed)